Location: Unspecified
(0.0000°N, 0.0000°E)
Time: 04:22:34

XW-2C - Pass Details

Date: 09 December 2017
Orbit: 510 x 531 km, 97.5° (Epoch: 16 March)

Event Time Altitude Azimuth Distance (km) Brightness Sun altitude
Rises 04:48:26 0° 47° (NE) 2,661 ? -14.7°
Reaches altitude 10° 04:51:51 10° 81° (E) 1,774 ? -13.9°
Maximum altitude 04:53:12 12° 101° (ESE) 1,673 ? -13.6°
Drops below altitude 10° 04:54:34 10° 122° (ESE) 1,775 ? -13.3°
Sets 04:57:58 0° 156° (SSE) 2,665 ? -12.5°
